Regional Weather Roundup
Issued by NWS Grand Forks, ND

Home | Current Version | Previous Version | Graphics & Text | Print | Product List | Glossary On
Versions: 1 2 3 4 5 6 7 8 9 10 11 12 13 14 15 16 17 18 19 20 21 22 23 24 25 26 27 28 29 30 31 32 33 34 35 36 37 38 39 40 41 42 43 44 45 46 47 48 49 50
000
ASUS43 KFGF 310010
RWRFGF
PRAIRIE TO PINES  WEATHER ROUNDUP
NATIONAL WEATHER SERVICE EASTERN NORTH DAKOTA/GRAND FORKS ND
700 PM CDT THU JUL 30 2015

 **SATELLITE DATA USED TO AUGMENT SKY COVER AT AUTOMATED STATIONS**
 *****  WEATHER ACROSS EASTERN NORTH DAKOTA  *****

CITY           SKY/WX    TMP DP  RH WIND       PRES   REMARKS
GRAND FORKS    MOSUNNY   80  54  40 W16G25    29.97S
6HR MIN TEMP:  78; 6HR MAX TEMP:  83;

GRAND FRKS AFB MOSUNNY   78  53  41 NW16G29   29.98F
GRAND FRKS NWS   N/A     81 N/A N/A W12         N/A
DEVILS LAKE    SUNNY     77  48  36 NW21G28   30.03R
6HR MIN TEMP:  77; 6HR MAX TEMP:  81;

FARGO          SUNNY     82  53  36 NW15      30.01S
WAHPETON ARPT  PTCLDY    81  50  34 NW14      30.03S
$$

 ***** WEATHER ACROSS CENTRAL AND WESTERN NORTH DAKOTA  *****

CITY           SKY/WX    TMP DP  RH WIND       PRES   REMARKS
BISMARCK       SUNNY     83  46  27 N15       30.13S
6HR MIN TEMP:  80; 6HR MAX TEMP:  85;

MINOT          SUNNY     78  45  30 NW17      30.11S
6HR MIN TEMP:  78; 6HR MAX TEMP:  83;

JAMESTOWN      SUNNY     80  52  37 NW15      30.07S
6HR MIN TEMP:  77; 6HR MAX TEMP:  82;

MINOT AFB      SUNNY     81  46  28 NW17      30.09S
GARRISON         N/A     78  50  37 NW13      30.13S
WILLISTON      SUNNY     84  43  23 N8        30.14F
6HR MIN TEMP:  80; 6HR MAX TEMP:  86;

DICKINSON      SUNNY     82  46  28 NW9       30.15F
6HR MIN TEMP:  79; 6HR MAX TEMP:  85;

HETTINGER      SUNNY     85  41  21 N15       30.18S
6HR MIN TEMP:  84; 6HR MAX TEMP:  88;

$$

 *****  OTHER AIRPORT OBSERVATIONS IN OUR AREA  *****

CITY           SKY/WX    TMP DP  RH WIND       PRES   REMARKS
WALHALLA       FAIR      75  50  41 MISG      29.97S
GRAFTON AIRPOR FAIR      79  52  38 NW20G29   29.97S
VALLEY CITY AR FAIR      81  54  39 NW16G23   30.06S
CANDO          NOT AVBL
CAVALIER APRT  FAIR      77  48  36 W16G28    29.96S
GWINNER        FAIR      82  55  39 W12       30.06F
SHEYENNE NWR     N/A     83  53  34 NW10      29.95S
ROLLA          FAIR      70  48  46 NW18G25   30.07S
 ***** THE ABOVE OBSERVATIONS ARE NON NWS ARE NOT QUALITY
       CONTROLLED AND MAY MIS-REPORT RAIN FOR SNOW...
$$

  *****  WEATHER ACROSS NORTHERN MINNESOTA  *****

CITY           SKY/WX    TMP DP  RH WIND       PRES   REMARKS
FLAG ISLAND    MOSUNNY   73  52  46 W10       29.87S
WARROAD        MOSUNNY   73  61  64 W6        29.91S
ROSEAU         SUNNY     73  57  56 W9G20     29.91F
HALLOCK        MOSUNNY   79  45  29 NW16G26   29.93S
THF RVR FALLS  MOSUNNY   79  52  38 W17G25    29.96S
6HR MIN TEMP:  75; 6HR MAX TEMP:  79;

BAUDETTE       MOSUNNY   75  53  46 W15G24    29.90S
6HR MIN TEMP:  75; 6HR MAX TEMP:  80;

WASKISH        SUNNY     75  61  60 W12       29.92F
CROOKSTON      MOSUNNY   79  54  41 NW13G21   29.98S
$$
  *****  WEATHER ACROSS CENTRAL AND WEST MINNESOTA  *****

CITY           SKY/WX    TMP DP  RH WIND       PRES   REMARKS
FOSSTON        SUNNY     79  55  44 W15       29.99S
BEMIDJI        MOSUNNY   77  54  44 W16       29.97F
PARK RAPIDS    SUNNY     78  51  38 W17G26    30.00F
6HR MIN TEMP:  78; 6HR MAX TEMP:  82;

ELBOW LAKE     FAIR      78  59  51 NW13      30.04S
WADENA         MOSUNNY   79  54  41 NW12G20   30.02S
DETROIT LAKES  SUNNY     79  52  38 W17G24    30.04S
MOORHEAD       SUNNY     79  54  41 NW16      30.02S
FERGUS FALLS   MOSUNNY   79  57  47 NW14      30.01F
MORRIS MN      SUNNY     81  63  54 NW7       30.03S
STAPLES        SUNNY     77  54  44 W12       30.01S
$$
  *****  WEATHER ELSEWHERE ACROSS MINNESOTA  *****

CITY           SKY/WX    TMP DP  RH WIND       PRES   REMARKS
DULUTH         MOSUNNY   79  53  40 W13G22    29.93S
6HR MIN TEMP:  78; 6HR MAX TEMP:  82;

INTRNTL FALLS  SUNNY     76  53  44 W16G30    29.88S
6HR MIN TEMP:  73; 6HR MAX TEMP:  79; 6HR PCP: TRACE;

ELY            PTSUNNY   75  54  46 W13       29.88S
CLOQUET        MOSUNNY   79  48  34 W14G20    29.94S
WHEATON        SUNNY     79  59  50 NW9       30.05F
BRAINERD       MOSUNNY   79  54  41 W12       29.99F
6HR MIN TEMP:  79; 6HR MAX TEMP:  82;

HIBBING        SUNNY     77  51  40 W12G21    29.93R
6HR MIN TEMP:  77; 6HR MAX TEMP:  81;

ALEXANDRIA     SUNNY     79  57  46 NW15      30.05F
6HR MIN TEMP:  78; 6HR MAX TEMP:  82;

SAINT CLOUD    SUNNY     81  57  43 W14       30.01F
6HR MIN TEMP:  80; 6HR MAX TEMP:  84;

MINNEAPOLIS    MOSUNNY   83  56  39 W15       30.01F
6HR MIN TEMP:  82; 6HR MAX TEMP:  85;

$$

  *****  WEATHER ACROSS SOUTH DAKOTA  *****

CITY           SKY/WX    TMP DP  RH WIND       PRES   REMARKS
SIOUX FALLS    MOSUNNY   84  59  42 W7        30.10F
6HR MIN TEMP:  83; 6HR MAX TEMP:  87;

BROOKINGS      SUNNY     82  57  42 W7        30.11F
WATERTOWN      SUNNY     83  57  41 W8        30.08F
6HR MIN TEMP:  81; 6HR MAX TEMP:  85;

HURON          SUNNY     87  57  35 W5        30.07F
6HR MIN TEMP:  83; 6HR MAX TEMP:  89;

SISSETON         N/A     81  60  48 N12       30.04S
ABERDEEN       SUNNY     85  53  33 NW15      30.07F
6HR MIN TEMP:  85; 6HR MAX TEMP:  90;

MITCHELL       SUNNY     89  61  38 N3        30.09F
PIERRE         SUNNY     90  44  20 N8        30.08F
6HR MIN TEMP:  87; 6HR MAX TEMP:  92;

MOBRIDGE       SUNNY     86  52  30 N13       30.09S
RAPID CITY     SUNNY     85  45  24 CALM      30.21F
6HR MIN TEMP:  84; 6HR MAX TEMP:  88;

$$

  *****  SOME WEATHER IN NEARBY STATES *****

CITY           SKY/WX    TMP DP  RH WIND       PRES   REMARKS
GLASGOW MT     SUNNY     85  41  21 NW14      30.15S
6HR MIN TEMP:  78; 6HR MAX TEMP:  86;

GREAT FALLS MT SUNNY     86  36  16 S7        30.19F
6HR MIN TEMP:  79; 6HR MAX TEMP:  88;

CHEYENNE WY    SUNNY     82  42  24 E10       30.34F
6HR MIN TEMP:  79; 6HR MAX TEMP:  85;

SCOTTSBLUFF NE SUNNY     89  44  20 SE7       30.21F
6HR MIN TEMP:  81; 6HR MAX TEMP:  90;

OMAHA NE       MOSUNNY   89  60  37 CALM      30.10F
6HR MIN TEMP:  87; 6HR MAX TEMP:  91;

DES MOINES IA  MOSUNNY   85  63  47 W7        30.09F
6HR MIN TEMP:  85; 6HR MAX TEMP:  89;

DAVENPORT IA   SUNNY     82  67  60 W9        30.05F
6HR MIN TEMP:  82; 6HR MAX TEMP:  85;

CHICAGO IL     MOSUNNY   85  52  32 W14       29.99F
6HR MIN TEMP:  85; 6HR MAX TEMP:  88;

EAU CLAIRE WI  SUNNY     81  57  43 W9        29.98F
6HR MIN TEMP:  81; 6HR MAX TEMP:  85;

LA CROSSE WI   SUNNY     83  57  41 W12       30.00F
6HR MIN TEMP:  83; 6HR MAX TEMP:  87;

$$

  *****  SOME NATIONAL WEATHER *****

CITY           SKY/WX    TMP DP  RH WIND       PRES   REMARKS
LA GUARDIA NY  MOCLDY    79  71  76 S12       29.81S
6HR MIN TEMP:  75; 6HR MAX TEMP:  85; 6HR PCP:  1.56;

RALEIGH NC     MOCLDY    86  75  69 NE5       29.88R HX  95
6HR MIN TEMP:  86; 6HR MAX TEMP:  94;

ATLANTA GA     CLOUDY    81  71  71 NW10      29.93S
6HR MIN TEMP:  77; 6HR MAX TEMP:  94; 6HR PCP:  0.01;

NEW ORLEANS LA LGT RAIN  80  73  79 NW8       29.94F
6HR MIN TEMP:  76; 6HR MAX TEMP:  97; 6HR PCP:  0.06;

OKLAHOMA CITY  PTSUNNY   87  72  60 NE10      30.09R HX  93
6HR MIN TEMP:  84; 6HR MAX TEMP:  91;

ALBUQUERQUE NM CLOUDY    80  55  42 E15       30.29F
6HR MIN TEMP:  75; 6HR MAX TEMP:  83; 6HR PCP: TRACE;

SALT LAKE CITY MOSUNNY   92  24   8 N10G20    30.20F
6HR MIN TEMP:  82; 6HR MAX TEMP:  93;

LOS ANGELES CA MOSUNNY   73  66  78 W12       29.98R
6HR MIN TEMP:  72; 6HR MAX TEMP:  77;

BOISE ID       SUNNY     94  32  11 VRB3      30.13F


USA.gov is the U.S. government's official web portal to all federal, state and local government web resources and services.